Welcome to the New NWS' Forecast!
Most changes are behind the scenes, but click here for differences you might notice.
Latest weather observations around

Santa Barbara, Santa Barbara Municipal Airport (KSBA)

Using English Units (Switch to International System of Units)
Date/ Time (PDT) Wind (mph) Vis. (mi) Weather Sky Cond. Temp (°F) Rel. Humidity Wind Chill (°F) Heat Index (°F) Pressure Precip. (in)
Air Dwpt 6 hour Altimeter (inHg) Sea level (inHg) 1 hr 3 hr 6 hr
Max Min
Jul 16 02:53 E 7 10 Clear CLR 65 60     84%     29.93 29.93      
Jul 16 01:53 E 5 10 Clear CLR 66 61     84%     29.94 29.94      
Jul 16 00:53 SE 3 10 Clear CLR 66 61     84%     29.94 29.94      
Jul 15 23:53 SE 3 10 Clear CLR 66 61     84%     29.96 29.96      
Jul 15 22:53 SSE 5 10 Clear CLR 67 62     84%     29.95 29.95      
Jul 15 21:53 SE 3 10 Clear CLR 68 62     81%     29.93 29.92      
Jul 15 20:53 SE 7 10 Clear CLR 68 63     84%     29.9 29.9      
Jul 15 19:53 Calm 10 Clear CLR 70 62     76%     29.89 29.88      
Jul 15 18:53 SSE 8 10 Clear CLR 71 63     76%   71 29.88 29.88      
Jul 15 17:53 WSW 7 10 Clear CLR 76 59     56%   76 29.88 29.88      
Jul 15 16:53 W 7 10 Clear CLR 77 60     56%   77 29.9 29.9      
Jul 15 15:53 WSW 8 10 Clear CLR 77 60     56%   77 29.91 29.91      
Jul 15 14:53 WSW 9 10 Clear CLR 77 60     56%   77 29.93 29.93      
Jul 15 13:53 SW 9 10 Clear CLR 75 60     60%   75 29.95 29.95      
Jul 15 12:53 SW 10 10 Clear CLR 75 61     62%   75 29.96 29.96      
Jul 15 11:53 SW 9 10 Clear CLR 75 62     64%   75 29.97 29.97      
Jul 15 10:53 6 10 Clear CLR 76 63     64%   76 29.96 29.96      
Jul 15 09:53 6 10 Clear CLR 73 63     71%   73 29.96 29.96      
Jul 15 08:53 SSE 6 10 Clear CLR 70 63     78%     29.96 29.96      
Jul 15 07:53 SE 5 10 Clear CLR 69 63     81%     29.96 29.96      
Jul 15 06:53 E 5 10 Clear CLR 67 62     84%     29.95 29.95      
Jul 15 05:53 E 7 10 Clear CLR 65 62     90%     29.94 29.93      
Jul 15 04:53 E 3 10 Clear CLR 66 62     87%     29.92 29.92      
Jul 15 03:53 ESE 6 10 Clear CLR 66 62     87%     29.92 29.91      
Jul 15 02:53 E 6 10 Clear CLR 67 62     84%     29.92 29.92      
Jul 15 01:53 ENE 5 10 Clear CLR 67 62     84%     29.92 29.91      
Jul 15 00:53 E 6 10 Clear CLR 67 62     84%     29.91 29.91      
Jul 14 23:53 E 3 10 Clear CLR 68 62     81%     29.92 29.91      
Jul 14 22:53 E 7 10 Clear CLR 68 62     81%     29.91 29.91      
Jul 14 21:53 E 6 10 Clear CLR 69 62     78%     29.9 29.9      
Jul 14 20:53 ESE 6 10 Clear CLR 69 62     78%     29.89 29.89      
Jul 14 19:53 ESE 8 10 Clear CLR 69 62     78%     29.88 29.88      
Jul 14 18:53 SE 6 10 Clear CLR 71 61     70%   71 29.88 29.88      
Jul 14 17:53 SSW 5 10 Clear CLR 72 61     68%   72 29.89 29.89      
Jul 14 16:53 SW 10 10 Clear CLR 75 61     62%   75 29.9 29.9      
Jul 14 15:53 WSW 9 10 Clear CLR 78 61     56%   78 29.92 29.92      
Jul 14 14:53 WSW 10 10 Clear CLR 77 60     56%   77 29.94 29.94      
Jul 14 13:53 SW 10 10 Clear CLR 77 63     62%   77 29.95 29.95      
Jul 14 12:53 SSW 9 10 Clear CLR 74 63     69%   74 29.97 29.97      
Jul 14 11:53 SSE 7 10 Clear CLR 74 64     71%   74 29.99 29.99      
Jul 14 10:53 SSE 10 10 Mostly Clear FEW010 72 64     76%   72 30 30      
Jul 14 09:53 SE 11 10 Clear CLR 71 63     76%   71 30 30      
Jul 14 08:53 6 10 Clear CLR 70 63     78%     30 29.99      
Jul 14 07:53 SE 5 10 Mostly Clear FEW008 68 63     84%     29.99 29.99      
Jul 14 06:53 NNW 3 10 Clear CLR 65 62     90%     29.99 29.98      
Jul 14 04:53 ESE 3 10 Partly Cloudy SCT008 65 62     90%     29.97 29.97      
Jul 14 03:53 E 5 10 Cloudy OVC008 66 62     87%     29.97 29.97      
Jul 14 02:53 E 9 10 Mostly Cloudy BKN008 66 62     87%     29.97 29.97      
Jul 14 01:28 E 7 10 Mostly Cloudy BKN009 66 63     90%     29.99        
Jul 14 01:08 E 7 10 Mostly Clear FEW008 66 63     90%     29.99        
Jul 14 00:53 E 7 10 Clear CLR 66 63     90%     29.98 29.98      
Jul 13 22:53 E 7 10 Clear CLR 67 62     84%     29.98 29.98      
Jul 13 21:53 ESE 5 10 Clear CLR 67 62     84%     29.97 29.97      
Jul 13 20:53 SE 6 10 Clear CLR 67 61     81%     29.96 29.96      
Jul 13 19:53 Calm 10 Clear CLR 67 61     81%     29.95 29.95      
Jul 13 18:53 SSW 7 10 Clear CLR 70 62     76%     29.95 29.95      
Jul 13 17:53 7 10 Clear CLR 74 60     62%   74 29.95 29.95      
Jul 13 16:53 W 10 10 Clear CLR 73 61     66%   73 29.96 29.96      
Jul 13 15:53 WSW 13 10 Clear CLR 73 61     66%   73 29.97 29.97      
Jul 13 14:53 W 11 10 Clear CLR 74 60     62%   74 30 30      
Jul 13 13:53 WSW 10 10 Clear CLR 74 61     64%   74 30.01 30.01      
Jul 13 12:53 7 10 Clear CLR 75 62     64%   75 30.02 30.02      
Jul 13 11:53 SSW 7 10 Clear CLR 71 62     73%   71 30.03 30.03      
Jul 13 10:53 SSE 9 10 Clear CLR 70 62     76%     30.03 30.03      
Jul 13 09:53 SSE 6 10 Clear CLR 69 62     78%     30.02 30.02      
Jul 13 08:53 SE 6 10 Mostly Clear FEW007 66 61     84%     30.02 30.02      
Jul 13 08:39 SSE 7 10 Partly Cloudy SCT005 66 61     84%     30.02        
Jul 13 07:53 SE 3 10 Cloudy OVC006 64 60     87%     30.02 30.01      
Jul 13 06:53 Calm 5 Fog/Mist OVC004 63 61     93%     30.01 30.01      
Jul 13 05:53 WSW 3 5 Cloudy OVC006 63 60     90%     30 30      
Jul 13 04:53 Calm 10 Cloudy OVC006 63 61     93%     30 29.99      
Jul 13 03:53 Calm 10 Cloudy OVC007 64 61     90%     29.99 29.99      
Jul 13 02:53 W 5 10 Cloudy OVC007 64 61     90%     29.99 29.99      
May 15 11:53 S 8 10 Mostly Clear FEW040 63 53     70%     30.07 30.06      
May 15 01:53 Calm 10 Clear   52 47     83%     29.98 29.98      
May 14 16:53 W 15 10 Clear CLR 64 48     56%     29.96 29.95      
May 14 13:53   10 Clear CLR 66 50     56%     30 30      
May 12 22:53 W 8 10 Cloudy OVC042 58 53     84%     30.01 30.01      
May 12 00:53 Calm 10 Cloudy OVC019 57 51     81%     29.88 29.87      
May 11 17:53 W 7 10 Cloudy OVC018 58 51     78%     29.81 29.81      
May 11 08:53 SSW 6 8 Cloudy OVC026 59 53     81%     29.87 29.87      
Jun 11 20:53 WNW 13 10 Clear CLR 60 42     51%     29.93 29.93      
Jun 11 19:53 NNW 16 10 Clear CLR 63 41     45%     29.92 29.92      
Jun 10 01:53 E 6 10 Clear CLR 60 52     75%     29.86 29.86      
Jun 09 14:53   10 Partly Cloudy FEW004 SCT040 69 61     75%     29.91 29.91      
Jun 08 20:33 SE 11 10 Clear CLR 63 56     78%     29.9        
Jun 08 09:04 WSW 6 10 Partly Cloudy SCT030 64 56     75%     30.01        
Jun 08 04:53 Calm 10 Cloudy FEW010 OVC019 59 57     93%     29.99 29.98      
Jun 07 23:53 Calm 10 Cloudy OVC019 61 57     87%     29.98 29.97      
Jun 07 22:53 W 7 10 Cloudy OVC020 59 57     93%     29.98 29.98      
Jun 07 15:53 W 9 10 Cloudy OVC023 64 57     78%     29.95 29.95